{"data":{"norad_id":68597,"intl_designator":"2026-072AA","name":"KUIPER-00300","alt_names":[],"object_type":"PAYLOAD","status":"ACTIVE","operator":null,"country":"US","launch_date":"2026-04-04","launch_site_code":"AFETR","launch_vehicle":null,"mission":null,"orbit_class":"UNKNOWN","rcs_meters":null,"size_class":null,"mass_kg":null,"dimensions":null,"purposes":[],"wikipedia_slug":null,"has_3d_model":false,"image_url":null,"decayed_at":null,"tle_current":{"epoch":"2026-09-20T00:19:37.719264Z","epoch_age_seconds":108546,"freshness":"FRESH","line1":"1 68597U 26072AA  26263.01363101  .00001874  00000+0  27476-3 0  9994","line2":"2 68597  51.9028 126.3390 0000828 110.9273 249.1778 14.79937811 25305","mean_motion":14.79937811,"eccentricity":8.28e-5,"inclination_deg":51.9028,"raan_deg":126.339,"arg_perigee_deg":110.9273,"mean_anomaly_deg":249.1778,"bstar":0.00027476,"rev_number":2530,"period_min":97.301385862085,"perigee_km":628.9402080451,"apogee_km":630.10067611751,"semimajor_km":7007.6574420813,"source":"CELESTRAK","updated_at":"2026-09-20T09:00:24.354333Z"}}}